NDF56 EKCH-EDDH

Flight info

Callsign NDF56
Flight time 1h 3m
Altitude 20000
Route NEXEN2A NEXEN T503 MICOS N850 BOGMU BOGMU3P
Aircraft E50P/L-SBDFGRWY/LB2

Departure

Time 2026-04-23 19:09
Airport Copenhagen Kastrup Airport (EKCH)

Arrival

Time 2026-04-23 20:13
Airport Hamburg Helmut Schmidt Airport (EDDH)
Time Latitude Longitude Altitude Speed Heading
2026-04-23 18:47 55.62938 12.66460 46 ft 0 kts 311°
2026-04-23 19:00 55.62941 12.66457 19 ft 1 kts 341°
2026-04-23 19:00 55.62947 12.66463 19 ft 1 kts 69°
2026-04-23 19:00 55.62944 12.66475 19 ft 2 kts 129°
2026-04-23 19:00 55.62916 12.66527 19 ft 4 kts 169°
2026-04-23 19:01 55.62873 12.66509 19 ft 10 kts 217°
2026-04-23 19:01 55.62808 12.66409 19 ft 14 kts 222°
2026-04-23 19:01 55.62744 12.66310 19 ft 14 kts 220°
2026-04-23 19:01 55.62670 12.66195 19 ft 11 kts 221°
2026-04-23 19:02 55.62629 12.66137 19 ft 9 kts 211°
2026-04-23 19:02 55.62581 12.66134 19 ft 5 kts 171°
2026-04-23 19:02 55.62534 12.66154 19 ft 9 kts 147°
2026-04-23 19:02 55.62476 12.66223 19 ft 11 kts 188°
2026-04-23 19:03 55.62406 12.66129 19 ft 14 kts 219°
2026-04-23 19:03 55.62323 12.65998 19 ft 17 kts 227°
2026-04-23 19:03 55.62302 12.65818 19 ft 15 kts 268°
2026-04-23 19:03 55.62297 12.65614 19 ft 18 kts 266°
2026-04-23 19:04 55.62296 12.65388 19 ft 14 kts 268°
2026-04-23 19:04 55.62293 12.65248 19 ft 10 kts 262°
2026-04-23 19:04 55.62249 12.65199 19 ft 5 kts 174°
2026-04-23 19:04 55.62215 12.65187 19 ft 6 kts 215°
2026-04-23 19:05 55.62169 12.65135 19 ft 10 kts 212°
2026-04-23 19:05 55.62093 12.65048 19 ft 16 kts 214°
2026-04-23 19:05 55.61977 12.64915 19 ft 24 kts 213°
2026-04-23 19:05 55.61843 12.64763 19 ft 14 kts 214°
2026-04-23 19:06 55.61734 12.64633 19 ft 23 kts 214°
2026-04-23 19:06 55.61583 12.64460 19 ft 30 kts 212°
2026-04-23 19:06 55.61389 12.64238 19 ft 36 kts 214°
2026-04-23 19:06 55.61177 12.63993 19 ft 34 kts 212°
2026-04-23 19:07 55.60977 12.63771 19 ft 29 kts 214°
2026-04-23 19:07 55.60806 12.63573 19 ft 30 kts 216°
2026-04-23 19:07 55.60630 12.63356 19 ft 32 kts 221°
2026-04-23 19:07 55.60489 12.63141 19 ft 18 kts 212°
2026-04-23 19:08 55.60403 12.63168 19 ft 8 kts 125°
2026-04-23 19:08 55.60374 12.63227 20 ft 11 kts 131°
2026-04-23 19:08 55.60350 12.63357 21 ft 9 kts 44°
2026-04-23 19:08 55.60509 12.63600 20 ft 66 kts 40°
2026-04-23 19:09 55.61055 12.64392 43 ft 132 kts 39°
2026-04-23 19:09 55.61826 12.65674 262 ft 173 kts 50°
2026-04-23 19:09 55.62690 12.67447 472 ft 205 kts 44°
2026-04-23 19:09 55.63838 12.69094 783 ft 217 kts 36°
2026-04-23 19:10 55.65068 12.70732 1126 ft 225 kts 36°
2026-04-23 19:10 55.66270 12.72556 1477 ft 230 kts 37°
2026-04-23 19:10 55.67433 12.74542 1824 ft 237 kts 50°
2026-04-23 19:10 55.68204 12.77126 2162 ft 244 kts 64°
2026-04-23 19:11 55.68557 12.80113 2499 ft 253 kts 83°
2026-04-23 19:11 55.68382 12.83257 2838 ft 261 kts 101°
2026-04-23 19:11 55.67647 12.86220 3176 ft 267 kts 120°
2026-04-23 19:11 55.66393 12.88672 3514 ft 272 kts 141°
2026-04-23 19:12 55.64746 12.90300 3847 ft 273 kts 160°
2026-04-23 19:12 55.62913 12.91150 4172 ft 272 kts 175°
2026-04-23 19:12 55.61038 12.91053 4508 ft 270 kts 192°
2026-04-23 19:12 55.59255 12.90070 4851 ft 267 kts 209°
2026-04-23 19:13 55.57745 12.88234 5178 ft 262 kts 226°
2026-04-23 19:13 55.56443 12.85982 5504 ft 262 kts 229°
2026-04-23 19:13 55.55101 12.83768 5843 ft 265 kts 225°
2026-04-23 19:13 55.53689 12.81656 6180 ft 266 kts 224°
2026-04-23 19:14 55.52281 12.79521 6519 ft 267 kts 225°
2026-04-23 19:14 55.50878 12.77360 6835 ft 268 kts 226°
2026-04-23 19:14 55.49482 12.75223 7146 ft 269 kts 226°
2026-04-23 19:14 55.48063 12.73052 7463 ft 270 kts 226°
2026-04-23 19:15 55.46634 12.70876 7869 ft 273 kts 226°
2026-04-23 19:15 55.45186 12.68672 8430 ft 277 kts 226°
2026-04-23 19:15 55.43724 12.66441 8982 ft 279 kts 226°
2026-04-23 19:15 55.42248 12.64196 9556 ft 281 kts 227°
2026-04-23 19:16 55.40762 12.61934 10121 ft 283 kts 227°
2026-04-23 19:16 55.39260 12.59653 10574 ft 287 kts 227°
2026-04-23 19:16 55.37740 12.57343 11033 ft 291 kts 226°
2026-04-23 19:17 55.34651 12.52663 11961 ft 296 kts 226°
2026-04-23 19:17 55.33083 12.50294 12441 ft 298 kts 226°
2026-04-23 19:17 55.31506 12.47908 12925 ft 300 kts 226°
2026-04-23 19:17 55.29917 12.45512 13419 ft 302 kts 226°
2026-04-23 19:18 55.28333 12.43122 13907 ft 304 kts 226°
2026-04-23 19:18 55.26721 12.40694 14352 ft 306 kts 226°
2026-04-23 19:18 55.25121 12.38224 14803 ft 305 kts 229°
2026-04-23 19:18 55.23949 12.35240 15244 ft 294 kts 254°
2026-04-23 19:19 55.22955 12.28368 16169 ft 292 kts 264°
2026-04-23 19:19 55.22538 12.24879 16644 ft 293 kts 264°
2026-04-23 19:20 55.21727 12.17827 17615 ft 297 kts 265°
2026-04-23 19:20 55.21325 12.14270 18114 ft 299 kts 265°
2026-04-23 19:20 55.20924 12.10692 18594 ft 300 kts 265°
2026-04-23 19:20 55.20523 12.07082 19033 ft 302 kts 265°
2026-04-23 19:21 55.20117 12.03381 19122 ft 317 kts 265°
2026-04-23 19:21 55.18203 11.96136 19122 ft 358 kts 229°
2026-04-23 19:21 55.16109 11.93635 19121 ft 374 kts 207°
2026-04-23 19:22 55.13560 11.92498 19121 ft 385 kts 187°
2026-04-23 19:22 55.10877 11.92914 19123 ft 391 kts 166°
2026-04-23 19:22 55.06377 11.97994 19120 ft 388 kts 130°
2026-04-23 19:23 55.04617 12.01555 19124 ft 387 kts 127°
2026-04-23 19:23 55.02930 12.05215 19132 ft 387 kts 126°
2026-04-23 19:23 55.01188 12.08793 19126 ft 389 kts 134°
2026-04-23 19:24 54.96270 12.12473 19121 ft 393 kts 176°
2026-04-23 19:24 54.93572 12.11996 19118 ft 390 kts 197°
2026-04-23 19:24 54.89238 12.06950 19121 ft 377 kts 231°
2026-04-23 19:25 54.85848 12.00035 19130 ft 376 kts 233°
2026-04-23 19:25 54.82197 11.93487 19130 ft 378 kts 229°
2026-04-23 19:26 54.78612 11.86846 19134 ft 377 kts 231°
2026-04-23 19:26 54.76811 11.83542 19138 ft 377 kts 230°
2026-04-23 19:27 54.73183 11.76968 19138 ft 377 kts 231°
2026-04-23 19:27 54.67755 11.67084 19138 ft 378 kts 230°
2026-04-23 19:28 54.64154 11.60559 19146 ft 378 kts 230°
2026-04-23 19:28 54.60525 11.53999 19147 ft 378 kts 230°
2026-04-23 19:29 54.58706 11.50722 19149 ft 378 kts 230°
2026-04-23 19:29 54.54582 11.45157 19152 ft 384 kts 209°
2026-04-23 19:30 54.49803 11.41556 18602 ft 358 kts 205°
2026-04-23 19:30 54.47531 11.39971 18226 ft 349 kts 205°
2026-04-23 19:30 54.43067 11.36898 17436 ft 341 kts 204°
2026-04-23 19:31 54.40876 11.35400 17050 ft 338 kts 205°
2026-04-23 19:31 54.38703 11.33919 16669 ft 334 kts 204°
2026-04-23 19:31 54.36548 11.32455 16291 ft 332 kts 205°
2026-04-23 19:31 54.34407 11.31005 15913 ft 330 kts 204°
2026-04-23 19:32 54.32264 11.29554 15553 ft 332 kts 204°
2026-04-23 19:32 54.30115 11.28096 15190 ft 333 kts 204°
2026-04-23 19:32 54.27953 11.26630 14830 ft 334 kts 204°
2026-04-23 19:32 54.25792 11.25164 14475 ft 334 kts 204°
2026-04-23 19:33 54.23632 11.23697 14124 ft 334 kts 204°
2026-04-23 19:33 54.21502 11.22252 13754 ft 333 kts 204°
2026-04-23 19:33 54.17192 11.19334 12974 ft 332 kts 204°
2026-04-23 19:34 54.15052 11.17894 12589 ft 330 kts 205°
2026-04-23 19:34 54.12913 11.16463 12212 ft 329 kts 204°
2026-04-23 19:34 54.08679 11.13656 11466 ft 323 kts 204°
2026-04-23 19:35 54.06596 11.12287 11196 ft 318 kts 204°
2026-04-23 19:35 54.04535 11.10946 11193 ft 318 kts 204°
2026-04-23 19:35 54.02504 11.09620 11192 ft 315 kts 204°
2026-04-23 19:35 54.00463 11.08294 11191 ft 313 kts 204°
2026-04-23 19:36 53.98431 11.06973 11195 ft 312 kts 204°
2026-04-23 19:36 53.96404 11.05657 11195 ft 311 kts 204°
2026-04-23 19:36 53.94381 11.04344 11195 ft 310 kts 204°
2026-04-23 19:36 53.92366 11.03036 11197 ft 310 kts 204°
2026-04-23 19:37 53.90350 11.01728 11196 ft 310 kts 204°
2026-04-23 19:37 53.88331 11.00415 11197 ft 313 kts 204°
2026-04-23 19:37 53.86293 10.99089 11199 ft 314 kts 204°
2026-04-23 19:37 53.84247 10.97756 11211 ft 316 kts 204°
2026-04-23 19:38 53.82193 10.96419 11200 ft 317 kts 204°
2026-04-23 19:38 53.80132 10.95080 11200 ft 317 kts 204°
2026-04-23 19:38 53.78069 10.93738 11200 ft 318 kts 204°
2026-04-23 19:38 53.76001 10.92392 11205 ft 318 kts 204°
2026-04-23 19:39 53.73933 10.91045 11206 ft 319 kts 204°
2026-04-23 19:39 53.71871 10.89693 11200 ft 318 kts 205°
2026-04-23 19:39 53.69896 10.88042 11199 ft 315 kts 213°
2026-04-23 19:39 53.68017 10.86224 11197 ft 315 kts 214°
2026-04-23 19:40 53.66098 10.84334 11203 ft 315 kts 214°
2026-04-23 19:40 53.64234 10.82482 11197 ft 315 kts 214°
2026-04-23 19:40 53.62345 10.80604 11202 ft 315 kts 214°
2026-04-23 19:40 53.60455 10.78727 11197 ft 315 kts 214°
2026-04-23 19:41 53.58568 10.76849 11203 ft 315 kts 214°
2026-04-23 19:41 53.56680 10.74966 11205 ft 315 kts 214°
2026-04-23 19:41 53.54795 10.73079 11203 ft 315 kts 214°
2026-04-23 19:41 53.53141 10.70774 11202 ft 306 kts 236°
2026-04-23 19:42 53.52248 10.67633 11198 ft 295 kts 261°
2026-04-23 19:42 53.51995 10.64246 11208 ft 291 kts 270°
2026-04-23 19:42 53.51714 10.60878 11205 ft 295 kts 259°
2026-04-23 19:42 53.50698 10.57837 11204 ft 307 kts 233°
2026-04-23 19:43 53.49019 10.55572 11207 ft 312 kts 217°
2026-04-23 19:43 53.47179 10.53624 11212 ft 313 kts 215°
2026-04-23 19:43 53.45338 10.51748 11212 ft 313 kts 214°
2026-04-23 19:43 53.43465 10.49870 11212 ft 314 kts 214°
2026-04-23 19:44 53.41590 10.47998 11216 ft 313 kts 214°
2026-04-23 19:44 53.39715 10.46129 11211 ft 313 kts 214°
2026-04-23 19:44 53.37846 10.44265 11218 ft 312 kts 214°
2026-04-23 19:44 53.35975 10.42405 11219 ft 312 kts 214°
2026-04-23 19:45 53.34107 10.40549 11220 ft 312 kts 214°
2026-04-23 19:45 53.32243 10.38694 11217 ft 312 kts 214°
2026-04-23 19:45 53.30378 10.36839 11222 ft 312 kts 214°
2026-04-23 19:45 53.28515 10.34991 11225 ft 311 kts 214°
2026-04-23 19:46 53.26743 10.32970 11219 ft 306 kts 227°
2026-04-23 19:46 53.25600 10.30083 11223 ft 295 kts 254°
2026-04-23 19:46 53.25243 10.26773 11226 ft 287 kts 271°
2026-04-23 19:46 53.25163 10.23443 11230 ft 287 kts 273°
2026-04-23 19:47 53.25135 10.21239 11229 ft 287 kts 274°
2026-04-23 19:47 53.25102 10.16783 11231 ft 287 kts 274°
2026-04-23 19:47 53.25178 10.13469 11230 ft 282 kts 284°
2026-04-23 19:47 53.25974 10.10566 11239 ft 274 kts 311°
2026-04-23 19:48 53.27441 10.08682 11242 ft 270 kts 336°
2026-04-23 19:48 53.29278 10.07896 11243 ft 270 kts 352°
2026-04-23 19:48 53.31142 10.08004 11239 ft 271 kts 11°
2026-04-23 19:48 53.32950 10.08798 11245 ft 271 kts 12°
2026-04-23 19:49 53.34791 10.09502 11246 ft 272 kts 10°
2026-04-23 19:49 53.36638 10.10174 11248 ft 272 kts 10°
2026-04-23 19:49 53.38493 10.10878 11250 ft 273 kts 11°
2026-04-23 19:49 53.39658 10.11321 11250 ft 273 kts 11°
2026-04-23 19:50 53.41508 10.12023 11253 ft 273 kts 11°
2026-04-23 19:50 53.43361 10.12723 11254 ft 272 kts 11°
2026-04-23 19:50 53.45215 10.13423 11257 ft 272 kts 11°
2026-04-23 19:50 53.47041 10.14116 11242 ft 272 kts 11°
2026-04-23 19:51 53.48890 10.14815 11241 ft 272 kts 11°
2026-04-23 19:51 53.50741 10.15521 11241 ft 272 kts 11°
2026-04-23 19:51 53.52562 10.16212 11244 ft 262 kts 11°
2026-04-23 19:51 53.54305 10.16878 11127 ft 253 kts 10°
2026-04-23 19:52 53.55424 10.17303 10887 ft 247 kts 10°
2026-04-23 19:52 53.57648 10.18147 10408 ft 244 kts 10°
2026-04-23 19:52 53.59299 10.18775 10046 ft 242 kts 10°
2026-04-23 19:52 53.60934 10.19457 9522 ft 244 kts 14°
2026-04-23 19:53 53.62480 10.20725 8998 ft 250 kts 27°
2026-04-23 19:53 53.63838 10.22538 8494 ft 247 kts 39°
2026-04-23 19:53 53.64937 10.24709 7994 ft 239 kts 45°
2026-04-23 19:53 53.65991 10.26832 7505 ft 236 kts 43°
2026-04-23 19:54 53.67052 10.28942 7016 ft 235 kts 44°
2026-04-23 19:54 53.67737 10.30338 6699 ft 232 kts 44°
2026-04-23 19:54 53.68756 10.32404 6189 ft 227 kts 44°
2026-04-23 19:54 53.69757 10.34429 5684 ft 223 kts 44°
2026-04-23 19:55 53.70744 10.36426 5167 ft 220 kts 44°
2026-04-23 19:55 53.72009 10.38914 4982 ft 194 kts 35°
2026-04-23 19:55 53.73200 10.39704 4975 ft 189 kts 358°
2026-04-23 19:55 53.74430 10.38954 4974 ft 194 kts 323°
2026-04-23 19:56 53.75017 10.37792 4975 ft 198 kts 308°
2026-04-23 19:56 53.75756 10.35811 4620 ft 198 kts 306°
2026-04-23 19:56 53.76475 10.33854 4236 ft 194 kts 306°
2026-04-23 19:56 53.77129 10.31887 3860 ft 193 kts 296°
2026-04-23 19:57 53.77191 10.29586 3488 ft 203 kts 266°
2026-04-23 19:57 53.76764 10.27276 3096 ft 209 kts 253°
2026-04-23 19:57 53.75985 10.25185 3004 ft 213 kts 239°
2026-04-23 19:57 53.75061 10.23238 3003 ft 212 kts 238°
2026-04-23 19:58 53.74116 10.21318 3000 ft 213 kts 236°
2026-04-23 19:58 53.73159 10.19407 2994 ft 211 kts 238°
2026-04-23 19:58 53.72237 10.17485 2775 ft 207 kts 237°
2026-04-23 19:58 53.71324 10.15682 2505 ft 192 kts 237°
2026-04-23 19:59 53.70574 10.14164 2269 ft 156 kts 240°
2026-04-23 19:59 53.69892 10.12732 2060 ft 160 kts 242°
2026-04-23 19:59 53.69167 10.11264 2047 ft 160 kts 239°
2026-04-23 19:59 53.68382 10.09984 2334 ft 169 kts 218°
2026-04-23 20:00 53.67134 10.09717 2614 ft 191 kts 168°
2026-04-23 20:00 53.66027 10.10897 2903 ft 190 kts 131°
2026-04-23 20:00 53.65069 10.12447 3201 ft 192 kts 135°
2026-04-23 20:00 53.64077 10.13965 3502 ft 194 kts 133°
2026-04-23 20:01 53.63168 10.15629 3792 ft 191 kts 114°
2026-04-23 20:01 53.62962 10.17711 4128 ft 178 kts 73°
2026-04-23 20:01 53.63159 10.19906 4511 ft 198 kts 75°
2026-04-23 20:01 53.63317 10.22247 4899 ft 208 kts 75°
2026-04-23 20:02 53.63522 10.24689 5005 ft 217 kts 74°
2026-04-23 20:02 53.63840 10.27156 5004 ft 217 kts 61°
2026-04-23 20:02 53.64532 10.29401 5012 ft 216 kts 54°
2026-04-23 20:02 53.65247 10.31616 5013 ft 212 kts 54°
2026-04-23 20:03 53.65943 10.33788 5007 ft 209 kts 54°
2026-04-23 20:03 53.66633 10.35933 5008 ft 208 kts 54°
2026-04-23 20:03 53.67322 10.38071 5007 ft 207 kts 54°
2026-04-23 20:03 53.68002 10.40172 4976 ft 206 kts 54°
2026-04-23 20:04 53.68700 10.42311 4976 ft 202 kts 50°
2026-04-23 20:04 53.69726 10.43752 4965 ft 190 kts 18°
2026-04-23 20:04 53.70968 10.44520 4963 ft 191 kts 15°
2026-04-23 20:04 53.72223 10.45310 4969 ft 193 kts 15°
2026-04-23 20:05 53.73476 10.46080 4970 ft 195 kts 15°
2026-04-23 20:05 53.74755 10.46863 4970 ft 196 kts 15°
2026-04-23 20:05 53.76038 10.47648 4968 ft 197 kts 15°
2026-04-23 20:05 53.77327 10.48422 4966 ft 195 kts 11°
2026-04-23 20:06 53.78631 10.48289 4955 ft 190 kts 336°
2026-04-23 20:06 53.79571 10.46740 4955 ft 197 kts 301°
2026-04-23 20:06 53.79767 10.44415 4954 ft 209 kts 270°
2026-04-23 20:06 53.79472 10.41986 4960 ft 211 kts 265°
2026-04-23 20:07 53.79160 10.39550 4959 ft 220 kts 265°
2026-04-23 20:07 53.78827 10.36927 4969 ft 232 kts 264°
2026-04-23 20:07 53.78487 10.34251 4975 ft 233 kts 264°
2026-04-23 20:07 53.78145 10.31573 4981 ft 233 kts 264°
2026-04-23 20:08 53.77642 10.28964 5003 ft 237 kts 251°
2026-04-23 20:08 53.76717 10.26616 5003 ft 243 kts 238°
2026-04-23 20:08 53.75629 10.24423 5006 ft 244 kts 236°
2026-04-23 20:08 53.74582 10.22288 4999 ft 229 kts 238°
2026-04-23 20:09 53.73602 10.20287 4950 ft 215 kts 237°
2026-04-23 20:09 53.72665 10.18403 4724 ft 202 kts 238°
2026-04-23 20:09 53.71814 10.16640 4309 ft 182 kts 239°
2026-04-23 20:09 53.71053 10.15123 3809 ft 162 kts 240°
2026-04-23 20:10 53.70588 10.14149 3472 ft 162 kts 241°
2026-04-23 20:10 53.69562 10.12063 2788 ft 180 kts 238°
2026-04-23 20:10 53.68755 10.10427 2333 ft 178 kts 240°
2026-04-23 20:10 53.67992 10.08880 2061 ft 164 kts 240°
2026-04-23 20:11 53.67257 10.07450 1585 ft 161 kts 237°
2026-04-23 20:11 53.66519 10.06080 1055 ft 148 kts 237°
2026-04-23 20:11 53.65920 10.04856 733 ft 122 kts 239°
2026-04-23 20:11 53.65427 10.03843 564 ft 106 kts 241°
2026-04-23 20:12 53.65000 10.02856 464 ft 101 kts 243°
2026-04-23 20:12 53.64533 10.01896 328 ft 111 kts 235°
2026-04-23 20:12 53.64048 10.00885 224 ft 110 kts 238°
2026-04-23 20:12 53.63556 9.99909 82 ft 106 kts 240°
2026-04-23 20:13 53.63133 9.98994 41 ft 82 kts 233°
2026-04-23 20:13 53.62921 9.98599 40 ft 32 kts 213°
2026-04-23 20:13 53.62773 9.98482 40 ft 10 kts 194°
2026-04-23 20:13 53.62765 9.98481 40 ft 2 kts 180°
2026-04-23 20:14 53.62764 9.98481 40 ft 0 kts 180°
2026-04-23 20:14 53.62745 9.98480 40 ft 6 kts 184°
2026-04-23 20:14 53.62701 9.98508 42 ft 8 kts 118°
2026-04-23 20:14 53.62717 9.98603 42 ft 9 kts 52°
2026-04-23 20:15 53.62759 9.98693 42 ft 11 kts 51°
2026-04-23 20:15 53.62792 9.98757 42 ft 8 kts 49°
2026-04-23 20:15 53.62802 9.98777 42 ft 2 kts 64°
2026-04-23 20:15 53.62784 9.98803 42 ft 6 kts 154°
2026-04-23 20:16 53.62732 9.98850 42 ft 11 kts 152°
2026-04-23 20:16 53.62685 9.98892 42 ft 3 kts 154°
2026-04-23 20:16 53.62655 9.98913 42 ft 5 kts 156°
2026-04-23 20:16 53.62637 9.98929 42 ft 4 kts 150°
2026-04-23 20:17 53.62612 9.98967 42 ft 2 kts 118°
2026-04-23 20:17 53.62614 9.99002 42 ft 3 kts 62°
2026-04-23 20:17 53.62615 9.99007 42 ft 0 kts 62°